Location: Newark
(36.8464°N, 25.6817°E)
Time: 20:06:18
(UTC+00:00)

Envisat - Visible Passes

Search period start: 13 October 2019 00:00
Search period end: 23 October 2019 00:00
Orbit: 764 x 766 km, 98.1° (Epoch: 13 October)

Date Brightness Start Highest point End Pass type
(mag) Time Alt. Az. Time Alt. Az. Time Alt. Az.
13 Oct 3.8 16:48:27 10° S 16:53:24 55° W 16:58:24 10° NNW visible
14 Oct 3.0 16:11:39 10° SSE 16:16:39 64° ENE 16:21:41 10° N visible
14 Oct 6.1 17:53:55 10° WSW 17:56:04 13° W 17:58:13 10° WNW visible
15 Oct 5.0 17:14:35 10° SSW 17:19:00 30° W 17:23:26 10° NW visible
16 Oct 6.8 03:49:19 10° ENE 03:50:36 11° E 03:51:54 10° ESE visible
16 Oct 3.3 16:37:04 10° S 16:42:08 71° WSW 16:47:12 10° NNW visible
17 Oct 3.2 16:00:33 10° SSE 16:05:26 50° ENE 16:10:20 10° N visible
17 Oct 5.9 17:41:32 10° SW 17:44:41 17° W 17:47:52 10° NW visible
18 Oct 4.5 17:02:59 10° SSW 17:07:41 38° W 17:12:25 10° NNW visible
19 Oct 3.0 16:25:47 10° SSE 16:30:52 90° SE 16:35:58 10° NNW visible
20 Oct 5.5 17:29:32 10° SW 17:33:20 21° W 17:37:10 10° NW visible
21 Oct 6.2 04:01:55 10° NE 04:05:01 16° E 04:08:05 10° SE visible
21 Oct 4.0 16:51:29 10° S 16:56:23 49° W 17:01:19 10° NNW visible
22 Oct 2.9 16:14:35 10° SSE 16:19:37 71° ENE 16:24:41 10° N visible
22 Oct 6.2 17:57:35 10° WSW 17:59:05 11° W 18:00:37 10° WNW visible
